Tracking 19476 objects as of 17-Jan-2019
HD Live streaming from Space Station
objects crossing your sky now

COSMOS 2159

Track COSMOS 2159 now!
10-day predictions
COSMOS 2159 is classified as:


NORAD ID: 21730
Int'l Code: 1991-068C
Perigee: 1,395.1 km
Apogee: 1,416.0 km
Inclination: 82.6 °
Period: 113.7 minutes
Semi major axis: 7776 km
RCS: 1.1647 m2 (large)
Launch date: September 28, 1991
Source: Commonwealth of Independent States (former USSR) (CIS)
Launch site: PLESETSK MISSILE AND SPACE COMPLEX (PKMTR)
aabbcc
Your satellite tracking list
Your tracking list is empty




NASA's NSSDC Master Catalog

Two Line Element Set (TLE):
1 21730U 91068C   19016.96042795 +.00000042 +00000-0 +16647-3 0  9999
2 21730 082.5808 219.0660 0013489 336.1928 139.8923 12.65967515261547
Source of the keplerian elements: AFSPC